[[{"header":{"parameterUnit":"m.s-1","parameterCategory":1,"la1":30.2991,"la2":30.254,"lo1":-89.0895,"lo2":-89.0444,"dy":0.0017,"dx":0.0017,"nx":28,"ny":28,"refTime":"2024-06-18T21:00:00:Z","depth":0,"parameterNumber":2,"parameterNumberName":"U-component_of_WINDS"},"data":[0,0,0,0,0,0,0,0,0,0,0,0,0,0,0,0,0,0,0,0,0,0,0,0,0,0,0,0,0,0,0,0,0,0,0,0,0,0,0,0,0,0,0,0,0,0,0,0,0,0,0,0,0,0,0,0,0,0,-6.7181,-6.718,0,-6.7128,-6.7127,-6.7126,-6.6865,-6.6859,-6.6853,-6.6847,-6.6799,-6.6804,-6.6808,0,0,0,0,0,0,0,0,0,0,0,0,0,-6.7062,-6.7065,-6.7181,-6.718,-6.7179,-6.7128,-6.7127,-6.7126,-6.6867,-6.6859,-6.6851,-6.6844,-6.6798,-6.6803,-6.6809,0,0,0,0,0,0,0,0,0,0,0,0,0,-6.7072,-6.7066,-6.7181,-6.7043,-6.703,-6.7128,-6.7127,-6.7126,-6.6868,-6.6859,-6.685,-6.6841,-6.6796,-6.6803,-6.6809,-6.7037,0,0,-6.683,-6.6833,0,0,0,0,0,0,0,0,-6.7072,-6.7077,-6.7064,-6.7053,-6.7039,-6.6993,-6.7067,-6.7097,-6.687,-6.693,-6.6847,-6.6836,-6.6872,-6.6872,-6.6883,-6.7035,-6.7033,-6.6831,-6.6835,-6.6838,-6.684,0,0,0,0,0,0,0,-6.7071,-6.7077,-6.716,-6.7064,-6.7049,-6.6986,-6.6977,-6.7072,-6.6954,-6.6924,-6.6905,-6.6902,-6.6863,-6.6877,-6.688,-6.7032,-6.683,-6.6836,-6.6841,-6.6843,-6.7366,-6.7375,0,0,0,0,0,0,-6.7089,-6.7079,-6.7161,-6.7158,-6.7032,-6.6996,-6.6986,-6.7018,-6.6952,-6.6933,-6.691,-6.689,-6.687,-6.6872,-6.6877,-6.7136,-6.6838,-6.6844,-6.6848,-6.7356,-6.7368,-6.7379,0,0,0,0,0,0,-6.7088,-6.7099,-6.7164,-6.7113,-6.7116,-6.7007,-6.7045,-6.7021,-6.7034,-6.6941,-6.692,-6.6945,-6.6862,-6.6867,-6.6998,-6.7131,-6.6847,-6.6853,-6.7345,-6.736,-6.7373,-6.766,0,0,0,0,0,0,-6.7085,-6.71,-6.7184,-6.7117,-6.712,-6.7285,-6.7054,-6.7027,-6.7046,-6.7019,-6.6968,-6.6951,-6.6856,-6.6989,-6.7005,-6.7135,-6.6858,-6.7332,-6.7351,-6.7369,-6.7638,-6.7682,-6.772,0,0,0,0,0,-6.7082,-6.7269,-6.719,-6.7201,-6.7223,-6.7293,-6.7295,-6.718,-6.7058,-6.7142,-6.7082,-6.6953,-6.7115,-6.7005,-6.702,-6.7155,-6.7323,-6.7346,-6.7367,-6.7619,-6.7674,-6.772,0,0,0,0,0,0,-6.7358,-6.7258,-6.7169,-6.7339,-6.7327,-6.7249,-6.7351,-6.7241,-6.7265,-6.7239,-6.7096,-6.7087,-6.7239,-6.721,-6.709,-6.737,-6.7197,-6.7223,-6.7383,-6.7434,-6.7475,-6.7478,-6.6864,0,0,0,0,0,-6.7438,-6.7502,-6.7412,-6.7571,-6.7569,-6.7463,-6.7489,-6.74,-6.7382,-6.7376,-6.7325,-6.7315,-6.7362,-6.7397,-6.7436,-6.7633,-6.7617,-6.7733,-6.7775,-6.7809,-6.7833,-6.7933,-6.7983,-6.7451,-6.7451,-6.7451,0,0,-6.7606,-6.7559,-6.7608,-6.7625,-6.7604,-6.7674,-6.7459,-6.7543,-6.7594,-6.7389,-6.7508,-6.7472,-6.745,-6.7614,-6.7684,-6.7595,-6.7976,-6.7837,-6.7865,-6.787,-6.7961,-6.8011,-6.8056,-6.7466,-6.7464,-6.7461,0,0,-6.7945,-6.7917,-6.8044,-6.8028,-6.7998,-6.7926,-6.7958,-6.7897,-6.7863,-6.798,-6.7827,-6.7887,-6.7973,-6.7963,-6.7969,-6.8305,-6.8186,-6.8322,-6.8537,-6.8636,-6.8678,-6.8714,-6.8832,-6.8876,-6.8346,-6.8347,-6.8347,0,-6.8157,-6.8254,-6.8125,-6.8217,-6.8229,-6.8045,-6.8174,-6.8165,-6.8152,-6.8165,-6.8065,-6.8167,-6.814,-6.8298,-6.838,-6.8392,-6.8423,-6.8326,-6.8682,-6.8717,-6.8749,-6.886,-6.8905,-6.8363,-6.8362,-6.836,-6.8358,0,-6.8515,-6.8585,-6.8692,-6.868,-6.8704,-6.8815,-6.8704,-6.8745,-6.8655,-6.8594,-6.8715,-6.8676,-6.8703,-6.8734,-6.8649,-6.8881,-6.8826,-6.8707,-6.8529,-6.8819,-6.892,-6.8962,-6.8387,-6.8381,-6.8376,-6.8372,0,0,-6.9026,-6.8939,-6.8981,-6.8972,-6.8926,-6.8978,-6.9082,-6.9105,-6.9142,-6.914,-6.9222,-6.9299,-6.9187,-6.9195,-6.9107,-6.9195,-6.946,-6.9063,-6.9061,-6.9137,-6.9711,-6.9799,-6.985,-6.9382,-6.939,-6.9396,-6.9712,0,-6.9348,-6.9515,-6.9402,-6.9588,-6.965,-6.9477,-6.9566,-6.9549,-6.9495,-6.9541,-6.9482,-6.9537,-6.9388,-6.939,-6.947,-6.9411,-6.9573,-6.9387,-6.9457,-6.9461,-6.9465,-6.9903,-6.9997,-7.0297,-6.9751,-6.9758,-6.9762,0,-6.9746,-6.9757,-6.9949,-6.9888,-6.991,-6.9992,-7.0003,-7.005,-7.0027,-6.9981,-6.999,-6.9879,-6.9977,-6.9804,-6.9936,-6.9812,-6.9835,-6.9811,-6.9819,-6.9819,-6.9628,-6.9913,-7.039,-7.0435,-6.9824,-6.9819,-6.9815,0,-7.0096,-7.016,-7.0281,-7.028,-7.0213,-7.0274,-7.025,-7.0217,-7.0238,-7.025,-7.0261,-7.0287,-7.03,-7.0322,-7.0221,-7.0105,-7.0367,-7.0186,-7.0332,-7.0335,-7.0392,-7.039,-7.0878,-7.0413,-7.0412,-7.0411,-7.041,0,-7.0466,-7.059,-7.0437,-7.0512,-7.0646,-7.0516,-7.0652,-7.061,-7.0582,-7.0647,-7.05,-7.0565,-7.0428,-7.048,-7.0402,-7.0523,-7.0531,-7.0497,-7.0475,-7.0509,-7.0513,-7.052,-7.0495,-7.0423,-7.042,-7.0418,-7.0416,0,-7.0878,-7.0781,-7.0902,-7.0828,-7.0812,-7.0914,-7.0851,-7.0918,-7.0854,-7.0938,-7.095,-7.0851,-7.0903,-7.0805,-7.0847,-7.0794,-7.0962,-7.0909,-7.0969,-7.0953,-7.1103,-7.109,-7.161,-7.1671,-7.117,-7.1175,-7.1179,0,-7.1119,-7.121,-7.1144,-7.1175,-7.1158,-7.1211,-7.123,-7.1107,-7.1134,-7.1114,-7.1184,-7.1223,-7.1247,-7.134,-7.1272,-7.1303,-7.1247,-7.1428,-7.1251,-7.1282,-7.1247,-7.1242,-7.1249,-7.1464,-7.147,-7.1475,-7.1479,0,-7.1557,-7.1504,-7.1536,-7.1552,-7.1579,-7.1587,-7.1584,-7.1619,-7.1487,-7.1526,-7.1575,-7.1595,-7.1634,-7.1676,-7.169,-7.1666,-7.1552,-7.1535,-7.157,-7.1605,-7.1635,-7.1618,-7.1066,-7.1523,-7.1519,-7.1516,-7.1513,-7.1512,-7.1889,-7.196,-7.1924,-7.1965,-7.1949,-7.195,-7.2008,-7.195,-7.1989,-7.2009,-7.1935,-7.2002,-7.1976,-7.1982,-7.1971,-7.2023,-7.1942,-7.1994,-7.2006,-7.202,-7.2043,-7.1629,-7.2026,-7.2024,-7.2023,-7.2022,-7.2021,0,-7.2316,-7.2284,-7.2323,-7.2321,-7.2354,-7.2241,-7.2232,-7.2267,-7.2327,-7.2311,-7.2338,-7.2395,-7.2434,-7.237,-7.2399,-7.2452,-7.2401,-7.2464,-7.2457,-7.2454,-7.2115,-7.208,-7.2505,-7.2505,-7.2505,-7.2505,-7.2505,-7.2505,-7.2542,-7.2655,-7.2598,-7.2703,-7.267,-7.2732,-7.2736,-7.2736,-7.2722,-7.2792,-7.2822,-7.2779,-7.2745,-7.2769,-7.28,-7.278,-7.2797,-7.2879,-7.2841,-7.2525,-7.2478,-7.2433,-7.2399,-7.2884,-7.2885,-7.3175,-7.3177,-7.318]},{"header":{"parameterUnit":"m.s-1","parameterCategory":1,"la1":30.2991,"la2":30.254,"lo1":-89.0895,"lo2":-89.0444,"dy":0.0017,"dx":0.0017,"nx":28,"ny":28,"refTime":"2024-06-18T21:00:00:Z","depth":0,"parameterNumber":3,"parameterNumberName":"V-component_of_WINDS"},"data":[0,0,0,0,0,0,0,0,0,0,0,0,0,0,0,0,0,0,0,0,0,0,0,0,0,0,0,0,0,0,0,0,0,0,0,0,0,0,0,0,0,0,0,0,0,0,0,0,0,0,0,0,0,0,0,0,0,0,-0.0544,-0.0545,0,-0.0628,-0.0629,-0.063,-0.0715,-0.0716,-0.0718,-0.0719,-0.0803,-0.0805,-0.0806,0,0,0,0,0,0,0,0,0,0,0,0,0,-0.0454,-0.0455,-0.0544,-0.0545,-0.0546,-0.0628,-0.0629,-0.063,-0.0715,-0.0717,-0.0718,-0.0719,-0.0803,-0.0804,-0.0806,0,0,0,0,0,0,0,0,0,0,0,0,0,-0.0511,-0.0456,-0.0544,-0.0598,-0.0604,-0.0628,-0.0629,-0.0631,-0.0715,-0.0717,-0.0718,-0.072,-0.0803,-0.0804,-0.0806,-0.0782,0,0,-0.0811,-0.0812,0,0,0,0,0,0,0,0,-0.0508,-0.0514,-0.0589,-0.0594,-0.0601,-0.0663,-0.0629,-0.0681,-0.0714,-0.0673,-0.0719,-0.0721,-0.0755,-0.0761,-0.0773,-0.0786,-0.079,-0.0812,-0.0813,-0.0813,-0.0814,0,0,0,0,0,0,0,-0.0504,-0.0511,-0.0577,-0.059,-0.0597,-0.0618,-0.0628,-0.0639,-0.0703,-0.0676,-0.0683,-0.0692,-0.0759,-0.0771,-0.0775,-0.0791,-0.0811,-0.0813,-0.0814,-0.0815,-0.0788,-0.0786,0,0,0,0,0,0,-0.0492,-0.0507,-0.0574,-0.058,-0.0558,-0.0618,-0.0629,-0.0641,-0.0703,-0.0714,-0.069,-0.0695,-0.0767,-0.0773,-0.0779,-0.0754,-0.0813,-0.0815,-0.0816,-0.079,-0.0788,-0.0786,0,0,0,0,0,0,-0.0489,-0.0497,-0.0571,-0.0545,-0.0556,-0.0618,-0.0631,-0.0642,-0.0654,-0.0714,-0.0725,-0.0691,-0.0769,-0.0776,-0.0781,-0.0758,-0.0816,-0.0817,-0.0792,-0.0789,-0.0787,-0.0705,0,0,0,0,0,0,-0.0486,-0.0496,-0.0488,-0.0544,-0.0557,-0.0572,-0.0629,-0.0642,-0.0657,-0.0665,-0.0718,-0.0728,-0.0771,-0.0777,-0.0782,-0.0762,-0.0819,-0.0794,-0.0791,-0.0787,-0.071,-0.07,-0.0692,0,0,0,0,0,-0.0483,-0.0461,-0.0487,-0.0494,-0.0549,-0.057,-0.0578,-0.0628,-0.0655,-0.0648,-0.0685,-0.0726,-0.076,-0.0777,-0.0783,-0.0763,-0.0796,-0.0792,-0.0788,-0.0714,-0.0702,-0.0692,0,0,0,0,0,0,-0.04,-0.047,-0.0499,-0.0495,-0.0526,-0.0585,-0.0577,-0.0613,-0.0637,-0.0643,-0.0704,-0.0715,-0.0712,-0.0738,-0.0756,-0.0743,-0.0784,-0.0781,-0.0726,-0.0715,-0.0705,-0.0699,-0.082,0,0,0,0,0,-0.0381,-0.0394,-0.0454,-0.0444,-0.0459,-0.0514,-0.0526,-0.0562,-0.0596,-0.061,-0.0648,-0.0679,-0.0697,-0.0707,-0.0727,-0.0715,-0.0727,-0.0704,-0.0694,-0.0686,-0.0683,-0.0677,-0.0667,-0.0773,-0.0773,-0.0773,0,0,-0.0343,-0.0382,-0.0386,-0.0429,-0.0457,-0.0468,-0.0525,-0.0534,-0.0542,-0.0611,-0.0617,-0.0646,-0.0685,-0.068,-0.068,-0.0702,-0.0657,-0.0681,-0.0675,-0.0676,-0.0672,-0.0662,-0.0653,-0.077,-0.077,-0.0771,0,0,-0.0278,-0.0309,-0.0305,-0.0332,-0.0374,-0.0411,-0.041,-0.0463,-0.0485,-0.0492,-0.0544,-0.0554,-0.0584,-0.0609,-0.0626,-0.0569,-0.0607,-0.0574,-0.0525,-0.0519,-0.051,-0.0503,-0.0482,-0.0474,-0.057,-0.057,-0.057,0,-0.0224,-0.0243,-0.0297,-0.0303,-0.032,-0.0383,-0.0378,-0.0401,-0.0447,-0.0457,-0.0481,-0.0519,-0.055,-0.0551,-0.0537,-0.0549,-0.0549,-0.0568,-0.0507,-0.0501,-0.0495,-0.0475,-0.0467,-0.0566,-0.0566,-0.0567,-0.0567,0,-0.0174,-0.0186,-0.0178,-0.0221,-0.0236,-0.0237,-0.029,-0.03,-0.0334,-0.0368,-0.0374,-0.0413,-0.0441,-0.0445,-0.0478,-0.0451,-0.0463,-0.0496,-0.0538,-0.0479,-0.0462,-0.0455,-0.0559,-0.0561,-0.0562,-0.0563,0,0,-0.006,-0.0133,-0.0128,-0.0148,-0.0199,-0.0209,-0.0212,-0.024,-0.0246,-0.0275,-0.0278,-0.0302,-0.0332,-0.0351,-0.0388,-0.0383,-0.0334,-0.0417,-0.0419,-0.0399,-0.0305,-0.0279,-0.027,-0.036,-0.0359,-0.0358,-0.0302,0,-0.0003,-0.0012,-0.0061,-0.0055,-0.0066,-0.0126,-0.0128,-0.0159,-0.0191,-0.0204,-0.024,-0.0255,-0.0295,-0.0306,-0.0304,-0.034,-0.0316,-0.0345,-0.0362,-0.0362,-0.035,-0.0261,-0.0234,-0.0179,-0.0295,-0.0294,-0.0293,0,0.0062,0.0037,0.0041,-0.0009,-0.0015,-0.0016,-0.0045,-0.0058,-0.0094,-0.0117,-0.0138,-0.0179,-0.0184,-0.0224,-0.0231,-0.025,-0.026,-0.0279,-0.0278,-0.0281,-0.0324,-0.0261,-0.0163,-0.0154,-0.0283,-0.0284,-0.0285,0,0.0147,0.0114,0.0112,0.0097,0.0038,0.0039,0.0015,-0.0023,-0.0036,-0.0061,-0.007,-0.0095,-0.0109,-0.0127,-0.0174,-0.0198,-0.0175,-0.0219,-0.0194,-0.0193,-0.0186,-0.0186,-0.0088,-0.0193,-0.0194,-0.0194,-0.0194,0,0.0216,0.0221,0.015,0.0149,0.0153,0.0098,0.0104,0.0074,0.0041,0.0034,-0.0019,-0.0024,-0.0086,-0.0098,-0.0134,-0.0134,-0.014,-0.0159,-0.0168,-0.0153,-0.0151,-0.016,-0.0165,-0.0192,-0.0192,-0.0193,-0.0193,0,0.0312,0.0263,0.0258,0.0203,0.0189,0.0195,0.0149,0.0146,0.0111,0.0103,0.0098,0.0043,0.0027,-0.0022,-0.0051,-0.0076,-0.0064,-0.0083,-0.0052,-0.0058,-0.003,-0.0032,0.0066,0.0076,-0.0036,-0.0035,-0.0034,0,0.0359,0.0362,0.0307,0.0299,0.0277,0.0263,0.0249,0.0195,0.0183,0.0143,0.0145,0.0124,0.0105,0.0081,0.0039,0.0017,-0.0002,0.0033,-0.0006,0.0009,-0.0001,0.0,0.0,0.0042,0.0044,0.0045,0.0046,0,0.0449,0.0426,0.0407,0.0381,0.0366,0.0343,0.0317,0.0313,0.0252,0.0241,0.0223,0.0208,0.0178,0.0159,0.013,0.0105,0.0066,0.0059,0.0063,0.0079,0.0097,0.0089,-0.0028,0.0057,0.0056,0.0055,0.0054,0.0054,0.0523,0.0523,0.0485,0.0466,0.0441,0.0418,0.0413,0.0377,0.0361,0.0333,0.0302,0.0288,0.0252,0.021,0.0188,0.0177,0.0156,0.0163,0.0165,0.0167,0.0175,0.0099,0.0172,0.0171,0.0171,0.017,0.017,0,0.0611,0.0583,0.0567,0.0532,0.0518,0.0482,0.0451,0.0442,0.043,0.0401,0.0382,0.0362,0.0343,0.03,0.0277,0.0276,0.0258,0.0272,0.0272,0.0267,0.0194,0.0193,0.0287,0.0287,0.0287,0.0287,0.0287,0.0287,0.0655,0.0654,0.0626,0.0611,0.0583,0.0569,0.0555,0.0534,0.051,0.049,0.0473,0.0445,0.041,0.0384,0.0365,0.0353,0.0348,0.0368,0.035,0.0283,0.0272,0.0262,0.026,0.0367,0.0367,0.0424,0.0425,0.0425]}]]